904  
AXUS43 KGID 281002  
MISGRI  
 
GID CWA HOURLY WEATHER ROUNDUP  
NATIONAL WEATHER SERVICE HASTINGS NE  
500 AM CDT SUN MAY 28 2017  
 
NOTE: "FAIR" INDICATES FEW OR NO CLOUDS BELOW 12,000 FEET WITH NO  
SIGNIFICANT WEATHER AND/OR OBSTRUCTIONS TO VISIBILITY.  
   
..SOUTH CENTRAL NEBRASKA
 
 
 
CITY SKY/WX TMP DP RH WIND PRES REMARKS  
GRAND ISLAND CLEAR 53 50 89 W10 29.96F  
HASTINGS CLEAR 52 48 86 W7 29.98F  
KEARNEY CLEAR 55 45 67 W9 29.99S  
ORD CLEAR 48 43 82 NW6 29.95S  
YORK CLEAR 52 50 93 W7 29.94F  
AURORA CLEAR 54 50 87 W12 29.95F  
LEXINGTON CLEAR 47 45 90 W6 30.02S  
HOLDREGE CLEAR 52 46 82 W8 30.01S  
HEBRON CLEAR 55 52 90 W5 29.96S  
   
..NEBRASKA PANHANDLE
 
 
 
CITY SKY/WX TMP DP RH WIND PRES REMARKS  
CHADRON CLEAR 46 41 82 SW8 30.09F  
ALLIANCE CLEAR 39 37 92 W6 30.10S WCI 35  
SCOTTSBLUFF CLEAR 44 39 82 NW7 30.15F  
SIDNEY PTCLDY 44 38 79 W13 30.15S  
   
..WESTERN AND NORTH CENTRAL NEBRASKA
 
 
 
CITY SKY/WX TMP DP RH WIND PRES REMARKS  
VALENTINE CLEAR 49 43 80 NW8 29.98F  
AINSWORTH CLEAR 50 46 84 W7 29.97F  
ONEILL CLEAR 52 45 77 W8 29.93S  
BROKEN BOW CLEAR 53 44 71 W6 29.98F  
IMPERIAL CLEAR 48 41 76 W13 30.08F  
NORTH PLATTE CLEAR 43 41 93 NW9 30.04S  
MCCOOK CLEAR 50 46 86 W10 30.05F  
   
..EASTERN NEBRASKA
 
 
 
CITY SKY/WX TMP DP RH WIND PRES REMARKS  
NORFOLK CLEAR 52 46 80 W8 29.90S  
SO SIOUX CITY LGT RAIN 50 48 93 W6 29.87F  
TEKAMAH CLEAR 52 48 86 SW5 29.87F  
ALBION CLEAR 52 44 74 NW3 29.94R  
OMAHA EPPLEY PTCLDY 53 48 83 SE6 29.88F  
OFFUTT AFB CLEAR 55 51 87 CALM 29.89F  
MILLARD CLEAR 54 52 95 CALM 29.90S FOG  
LINCOLN CLEAR 56 51 84 W3 29.93S  
NEBRASKA CITY CLEAR 56 53 88 W3 29.91F  
BEATRICE CLEAR 53 51 95 CALM 29.93F  
FALLS CITY CLEAR 57 55 93 NW9 29.89F  
   
..NORTHERN KANSAS
 
 
 
CITY SKY/WX TMP DP RH WIND PRES REMARKS  
GOODLAND CLEAR 46 44 93 W12 30.12S  
HILL CITY CLEAR 51 49 92 W6 30.04F  
NORTON SUNNY 50 45 81 W7 30.03S  
PHILLIPSBURG CLEAR 48 48 100 W7 30.01F  
SMITH CENTER MOCLDY 48 46 93 W6 30.00F  
HAYS CLEAR 53 50 89 NW9 30.02F  
RUSSELL CLEAR 53 51 93 NW10 29.98F  
CONCORDIA CLEAR 53 52 96 W7 29.96F  
SALINA PTCLDY 58 55 90 NW8 29.97S  
TOPEKA CLEAR 60 59 96 NW7 29.88F  
 
CLICK HERE TO GO TO PREVIOUS BULLETINS.

The Nexlab NE Page
The Nexlab KS Page Main Text Page